This is the latest recevied weather packets stored in our database for station/object N0QV. If no packets are shown the sender has not sent any weather packets the latest 10 day(s).
| Time | Temp. | Humidity | Pressure | Rain* | Wind** | Luminosity | Snow |
|---|---|---|---|---|---|---|---|
| 1787938468 | 26.67° C | 59% | 1020.1 hPa | 0 mm | - | 505 W/m² | - |
| 1787938164 | 26.67° C | 59% | 1020.1 hPa | 0 mm | - | 291 W/m² | - |
| 1787937859 | 26.67° C | 57% | 1020.3 hPa | 0 mm | - | 285 W/m² | - |
| 1787937555 | 26.67° C | 59% | 1020.5 hPa | 0 mm | - | 426 W/m² | - |
| 1787937250 | 27.22° C | 58% | 1020.6 hPa | 0 mm | - | 505 W/m² | - |
| 1787936946 | 27.22° C | 57% | 1020.5 hPa | 0 mm | - | 563 W/m² | - |
| 1787936644 | 26.67° C | 57% | 1020.8 hPa | 0 mm | - | 608 W/m² | - |
| 1787936344 | 26.67° C | 56% | 1020.7 hPa | 0 mm | - | 623 W/m² | - |
| 1787936040 | 27.22° C | 57% | 1020.9 hPa | 0 mm | - | 638 W/m² | - |
| 1787935735 | 26.67° C | 57% | 1020.9 hPa | 0 mm | - | 619 W/m² | - |
| 1787935431 | 26.67° C | 60% | 1021 hPa | 0 mm | - | 607 W/m² | - |
| 1787935127 | 26.67° C | 58% | 1021 hPa | 0 mm | - | 699 W/m² | - |
| 1787934822 | 26.67° C | 58% | 1021 hPa | 0 mm | - | 693 W/m² | - |
| 1787934521 | 26.11° C | 57% | 1020.9 hPa | 0 mm | - | 677 W/m² | - |
| 1787934216 | 26.11° C | 58% | 1021 hPa | 0 mm | - | 678 W/m² | - |
| 1787933915 | 26.11° C | 58% | 1021.1 hPa | 0 mm | - | 658 W/m² | - |
| 1787933615 | 26.11° C | 58% | 1021.1 hPa | 0 mm | - | 613 W/m² | - |
| 1787933310 | 26.11° C | 61% | 1021.2 hPa | 0 mm | - | 634 W/m² | - |
| 1787933010 | 25° C | 62% | 1021.3 hPa | 0 mm | - | 624 W/m² | - |
| 1787932708 | 25° C | 64% | 1021.2 hPa | 0 mm | - | 311 W/m² | - |
| 1787932403 | 25° C | 61% | 1021.3 hPa | 0 mm | - | 512 W/m² | - |
| 1787932098 | 24.44° C | 63% | 1021.1 hPa | 0 mm | - | 491 W/m² | - |
| 1787931797 | 24.44° C | 60% | 1021.1 hPa | 0 mm | - | 482 W/m² | - |
| 1787931501 | 24.44° C | 62% | 1021.2 hPa | 0 mm | - | 509 W/m² | - |
| 1787931191 | 24.44° C | 63% | 1021.3 hPa | 0 mm | - | 486 W/m² | - |
* Rain latest hour (hover to see other rain measurements)
** Current wind speed in m/s (hover to see current wind gust speed)